Time,TemperatureF,DewpointF,PressureIn,WindDirection,WindDirectionDegrees,WindSpeedMPH,WindSpeedGustMPH,Humidity,HourlyPrecipIn,Conditions,Clouds,dailyrainin,SoftwareType,DateUTC
2013-05-18 00:01:00,66.4,62.4,30.12,East,90,0.0,0.0,87,0.00,CLR,,0.00,WeatherDisplay:10.37,2013-05-18 04:01:00,
2013-05-18 00:06:00,66.2,62.5,30.12,East,90,0.0,0.0,88,0.00,CLR,,0.00,WeatherDisplay:10.37,2013-05-18 04:06:00,
2013-05-18 00:11:00,65.8,62.5,30.12,East,90,0.0,0.0,89,0.00,CLR,,0.00,WeatherDisplay:10.37,2013-05-18 04:11:00,
2013-05-18 00:16:00,65.7,62.0,30.12,East,90,0.0,0.0,88,0.00,CLR,,0.00,WeatherDisplay:10.37,2013-05-18 04:16:00,
2013-05-18 00:21:00,65.7,62.3,30.12,East,90,0.0,0.0,89,0.00,CLR,,0.00,WeatherDisplay:10.37,2013-05-18 04:21:00,
2013-05-18 00:26:00,65.5,62.5,30.12,East,90,0.0,0.0,90,0.00,CLR,,0.00,WeatherDisplay:10.37,2013-05-18 04:26:00,
2013-05-18 00:31:00,65.3,62.6,30.12,ENE,68,0.0,0.0,91,0.00,CLR,,0.00,WeatherDisplay:10.37,2013-05-18 04:31:00,
2013-05-18 00:36:00,65.1,62.1,30.12,ENE,68,0.0,0.0,90,0.00,CLR,,0.00,WeatherDisplay:10.37,2013-05-18 04:36:00,
2013-05-18 00:41:00,64.9,62.2,30.12,ENE,68,0.0,0.0,91,0.00,CLR,,0.00,WeatherDisplay:10.37,2013-05-18 04:41:00,
2013-05-18 00:46:00,64.8,62.1,30.12,ENE,68,0.0,0.0,91,0.00,CLR,,0.00,WeatherDisplay:10.37,2013-05-18 04:46:00,
2013-05-18 00:51:00,64.6,62.2,30.12,ENE,68,0.0,0.0,92,0.00,CLR,,0.00,WeatherDisplay:10.37,2013-05-18 04:51:00,
2013-05-18 00:56:00,64.4,61.7,30.12,NE,45,0.0,0.0,91,0.00,CLR,,0.00,WeatherDisplay:10.37,2013-05-18 04:56:00,
2013-05-18 01:01:00,64.2,61.8,30.12,NE,45,0.0,0.0,92,0.00,CLR,,0.00,WeatherDisplay:10.37,2013-05-18 05:01:00,
2013-05-18 01:06:00,64.0,62.0,30.12,NNW,338,0.0,0.0,93,0.00,CLR,,0.00,WeatherDisplay:10.37,2013-05-18 05:06:00,
2013-05-18 01:11:00,64.0,62.0,30.12,North,0,0.0,0.0,93,0.00,CLR,,0.00,WeatherDisplay:10.37,2013-05-18 05:11:00,
2013-05-18 01:16:00,63.9,61.8,30.12,North,0,0.0,0.0,93,0.00,CLR,,0.00,WeatherDisplay:10.37,2013-05-18 05:16:00,
2013-05-18 01:21:00,63.7,61.6,30.12,North,0,0.0,0.0,93,0.00,CLR,,0.00,WeatherDisplay:10.37,2013-05-18 05:21:00,
2013-05-18 01:26:00,63.5,61.7,30.12,North,0,0.0,0.0,94,0.00,CLR,,0.00,WeatherDisplay:10.37,2013-05-18 05:26:00,
2013-05-18 01:31:00,63.3,61.6,30.12,North,0,0.0,0.0,94,0.00,CLR,,0.00,WeatherDisplay:10.37,2013-05-18 05:31:00,
2013-05-18 01:37:00,63.1,61.4,30.12,North,0,0.0,0.0,94,0.00,CLR,,0.00,WeatherDisplay:10.37,2013-05-18 05:37:00,
2013-05-18 01:42:00,63.1,61.4,30.12,NE,45,0.0,0.0,94,0.00,CLR,,0.00,WeatherDisplay:10.37,2013-05-18 05:42:00,
2013-05-18 01:47:00,63.0,61.5,30.12,ENE,68,0.0,0.0,95,0.00,CLR,,0.00,WeatherDisplay:10.37,2013-05-18 05:47:00,
2013-05-18 01:52:00,63.0,61.8,30.12,ENE,68,0.0,0.0,96,0.00,CLR,,0.00,WeatherDisplay:10.37,2013-05-18 05:52:00,
2013-05-18 01:57:00,62.8,61.3,30.12,ENE,68,0.0,0.0,95,0.00,CLR,,0.00,WeatherDisplay:10.37,2013-05-18 05:57:00,
2013-05-18 02:02:00,62.6,61.4,30.12,East,90,0.0,0.0,96,0.00,CLR,,0.00,WeatherDisplay:10.37,2013-05-18 06:02:00,
2013-05-18 02:07:00,62.6,61.4,30.12,West,270,0.0,0.0,96,0.00,CLR,,0.00,WeatherDisplay:10.37,2013-05-18 06:07:00,
2013-05-18 02:12:00,62.6,61.4,30.09,West,270,0.0,0.0,96,0.00,CLR,,0.00,WeatherDisplay:10.37,2013-05-18 06:12:00,
2013-05-18 02:17:00,62.6,61.4,30.09,West,270,0.0,0.0,96,0.00,CLR,,0.00,WeatherDisplay:10.37,2013-05-18 06:17:00,
2013-05-18 02:22:00,62.6,61.4,30.09,West,270,0.0,0.0,96,0.00,CLR,,0.00,WeatherDisplay:10.37,2013-05-18 06:22:00,
2013-05-18 02:27:00,62.6,61.4,30.09,West,270,0.0,0.0,96,0.00,CLR,,0.00,WeatherDisplay:10.37,2013-05-18 06:27:00,
2013-05-18 02:32:00,62.4,61.3,30.09,West,270,0.0,0.0,96,0.00,CLR,,0.00,WeatherDisplay:10.37,2013-05-18 06:32:00,
2013-05-18 02:37:00,62.2,61.4,30.09,West,270,0.0,0.0,97,0.00,CLR,,0.00,WeatherDisplay:10.37,2013-05-18 06:37:00,
2013-05-18 02:42:00,62.2,61.4,30.09,West,270,0.0,0.0,97,0.00,CLR,,0.00,WeatherDisplay:10.37,2013-05-18 06:42:00,
2013-05-18 02:47:00,62.2,61.4,30.09,West,270,0.0,0.0,97,0.00,CLR,,0.00,WeatherDisplay:10.37,2013-05-18 06:47:00,
2013-05-18 02:52:00,62.1,61.2,30.09,West,270,0.0,0.0,97,0.00,CLR,,0.00,WeatherDisplay:10.37,2013-05-18 06:52:00,
2013-05-18 02:57:00,62.1,61.2,30.09,West,270,0.0,0.0,97,0.00,CLR,,0.00,WeatherDisplay:10.37,2013-05-18 06:57:00,
2013-05-18 03:02:00,62.1,61.2,30.09,WNW,292,0.0,0.0,97,0.00,CLR,,0.00,WeatherDisplay:10.37,2013-05-18 07:02:00,
2013-05-18 03:07:00,62.2,61.4,30.09,NNW,338,0.0,0.0,97,0.00,CLR,,0.00,WeatherDisplay:10.37,2013-05-18 07:07:00,
2013-05-18 03:12:00,62.1,61.5,30.09,NNW,338,0.0,0.0,98,0.00,CLR,,0.00,WeatherDisplay:10.37,2013-05-18 07:12:00,
2013-05-18 03:17:00,61.9,61.3,30.09,NNW,338,0.0,0.0,98,0.00,CLR,,0.00,WeatherDisplay:10.37,2013-05-18 07:17:00,
2013-05-18 03:22:00,61.9,61.0,30.09,ENE,68,0.0,0.0,97,0.00,CLR,,0.00,WeatherDisplay:10.37,2013-05-18 07:22:00,
2013-05-18 03:27:00,61.9,61.3,30.09,ENE,68,0.0,0.0,98,0.00,CLR,,0.00,WeatherDisplay:10.37,2013-05-18 07:27:00,
2013-05-18 03:32:00,61.7,61.1,30.09,ENE,68,0.0,0.0,98,0.00,CLR,,0.00,WeatherDisplay:10.37,2013-05-18 07:32:00,
2013-05-18 03:37:00,61.5,61.0,30.09,ENE,68,0.0,0.0,98,0.00,CLR,,0.00,WeatherDisplay:10.37,2013-05-18 07:37:00,
2013-05-18 03:42:00,61.5,61.0,30.09,ENE,68,0.0,0.0,98,0.00,CLR,,0.00,WeatherDisplay:10.37,2013-05-18 07:42:00,
2013-05-18 03:47:00,61.5,61.0,30.09,West,270,0.0,0.0,98,0.00,CLR,,0.00,WeatherDisplay:10.37,2013-05-18 07:47:00,
2013-05-18 03:52:00,61.5,61.0,30.09,West,270,0.0,0.0,98,0.00,CLR,,0.00,WeatherDisplay:10.37,2013-05-18 07:52:00,
2013-05-18 03:57:00,61.5,61.0,30.12,WNW,292,0.0,0.0,98,0.00,CLR,,0.00,WeatherDisplay:10.37,2013-05-18 07:57:00,
2013-05-18 04:02:00,61.5,61.0,30.12,WNW,292,0.0,0.0,98,0.00,CLR,,0.00,WeatherDisplay:10.37,2013-05-18 08:02:00,
2013-05-18 04:07:00,61.5,61.0,30.12,WNW,292,0.0,0.0,98,0.00,CLR,,0.00,WeatherDisplay:10.37,2013-05-18 08:07:00,
2013-05-18 04:12:00,61.3,60.8,30.09,WNW,292,0.0,0.0,98,0.00,CLR,,0.00,WeatherDisplay:10.37,2013-05-18 08:12:00,
2013-05-18 04:17:00,61.3,60.8,30.09,WNW,292,0.0,0.0,98,0.00,CLR,,0.00,WeatherDisplay:10.37,2013-05-18 08:17:00,
2013-05-18 04:22:00,61.2,60.6,30.09,NNE,22,0.0,0.0,98,0.00,CLR,,0.00,WeatherDisplay:10.37,2013-05-18 08:22:00,
2013-05-18 04:27:00,61.2,60.6,30.09,NNE,22,0.0,0.0,98,0.00,CLR,,0.00,WeatherDisplay:10.37,2013-05-18 08:27:00,
2013-05-18 04:32:00,61.0,60.4,30.09,NNE,22,0.0,0.0,98,0.00,CLR,,0.00,WeatherDisplay:10.37,2013-05-18 08:32:00,
2013-05-18 04:37:00,61.0,60.4,30.09,East,90,0.0,0.0,98,0.00,CLR,,0.00,WeatherDisplay:10.37,2013-05-18 08:37:00,
2013-05-18 04:42:00,61.0,60.4,30.09,East,90,0.0,0.0,98,0.00,CLR,,0.00,WeatherDisplay:10.37,2013-05-18 08:42:00,
2013-05-18 04:47:00,61.0,60.4,30.09,East,90,0.0,0.0,98,0.00,CLR,,0.00,WeatherDisplay:10.37,2013-05-18 08:47:00,
2013-05-18 04:52:00,60.8,60.2,30.09,East,90,0.0,0.0,98,0.00,CLR,,0.00,WeatherDisplay:10.37,2013-05-18 08:52:00,
2013-05-18 04:57:00,60.8,60.2,30.09,East,90,0.0,0.0,98,0.00,CLR,,0.00,WeatherDisplay:10.37,2013-05-18 08:57:00,
2013-05-18 05:02:00,60.8,60.2,30.09,East,90,0.0,0.0,98,0.00,CLR,,0.00,WeatherDisplay:10.37,2013-05-18 09:02:00,
2013-05-18 05:07:00,61.0,60.4,30.09,East,90,0.0,0.0,98,0.00,CLR,,0.00,WeatherDisplay:10.37,2013-05-18 09:07:00,
2013-05-18 05:12:00,61.0,60.4,30.09,ENE,68,0.0,0.0,98,0.00,CLR,,0.00,WeatherDisplay:10.37,2013-05-18 09:12:00,
2013-05-18 05:17:00,61.2,60.6,30.09,ENE,68,0.0,0.0,98,0.00,CLR,,0.00,WeatherDisplay:10.37,2013-05-18 09:17:00,
2013-05-18 05:22:00,61.3,60.8,30.09,ENE,68,0.0,0.0,98,0.00,CLR,,0.00,WeatherDisplay:10.37,2013-05-18 09:22:00,
2013-05-18 05:27:00,61.3,60.8,30.09,ENE,68,0.0,0.0,98,0.00,CLR,,0.00,WeatherDisplay:10.37,2013-05-18 09:27:00,
2013-05-18 05:32:00,61.5,61.0,30.09,WNW,292,0.0,0.0,98,0.00,CLR,,0.00,WeatherDisplay:10.37,2013-05-18 09:32:00,
2013-05-18 05:37:00,61.7,61.1,30.09,WNW,292,0.0,0.0,98,0.00,CLR,,0.00,WeatherDisplay:10.37,2013-05-18 09:37:00,
2013-05-18 05:42:00,61.9,61.3,30.12,East,90,1.2,2.3,98,0.00,CLR,,0.00,WeatherDisplay:10.37,2013-05-18 09:42:00,
2013-05-18 05:47:00,61.9,61.3,30.12,East,90,1.4,2.3,98,0.00,CLR,,0.00,WeatherDisplay:10.37,2013-05-18 09:47:00,
2013-05-18 05:52:00,62.1,61.5,30.12,ENE,68,1.4,1.4,98,0.00,CLR,,0.00,WeatherDisplay:10.37,2013-05-18 09:52:00,
2013-05-18 05:57:00,62.2,61.7,30.12,ENE,68,2.0,2.6,98,0.00,CLR,,0.00,WeatherDisplay:10.37,2013-05-18 09:57:00,
2013-05-18 06:02:00,62.6,62.0,30.12,ESE,112,2.2,3.5,98,0.00,CLR,,0.00,WeatherDisplay:10.37,2013-05-18 10:02:00,
2013-05-18 06:07:00,62.6,62.0,30.12,ENE,68,2.9,5.4,98,0.00,CLR,,0.00,WeatherDisplay:10.37,2013-05-18 10:07:00,
2013-05-18 06:12:00,62.8,62.2,30.12,ENE,68,2.0,2.4,98,0.00,CLR,,0.00,WeatherDisplay:10.37,2013-05-18 10:12:00,
2013-05-18 06:17:00,63.0,62.4,30.12,ENE,68,3.3,4.6,98,0.00,CLR,,0.00,WeatherDisplay:10.37,2013-05-18 10:17:00,
2013-05-18 06:22:00,63.0,62.4,30.12,NNE,22,2.6,2.6,98,0.00,CLR,,0.00,WeatherDisplay:10.37,2013-05-18 10:22:00,
2013-05-18 06:27:00,63.1,62.6,30.15,SSW,202,0.0,0.0,98,0.00,CLR,,0.00,WeatherDisplay:10.37,2013-05-18 10:27:00,
2013-05-18 06:32:00,63.1,62.6,30.15,NE,45,0.0,1.2,98,0.00,CLR,,0.00,WeatherDisplay:10.37,2013-05-18 10:32:00,
2013-05-18 06:37:00,63.3,62.7,30.15,West,270,2.6,3.5,98,0.00,CLR,,0.00,WeatherDisplay:10.37,2013-05-18 10:37:00,
2013-05-18 06:42:00,63.3,62.7,30.15,East,90,0.0,0.0,98,0.00,CLR,,0.00,WeatherDisplay:10.37,2013-05-18 10:42:00,
2013-05-18 06:47:00,63.5,62.9,30.15,East,90,1.4,3.5,98,0.00,CLR,,0.00,WeatherDisplay:10.37,2013-05-18 10:47:00,
2013-05-18 06:52:00,63.5,62.9,30.15,NNW,338,0.0,0.0,98,0.00,CLR,,0.00,WeatherDisplay:10.37,2013-05-18 10:52:00,
2013-05-18 06:57:00,63.5,62.9,30.12,East,90,1.4,2.3,98,0.00,CLR,,0.00,WeatherDisplay:10.37,2013-05-18 10:57:00,
2013-05-18 07:02:00,63.5,62.9,30.12,ENE,68,2.0,2.3,98,0.00,CLR,,0.00,WeatherDisplay:10.37,2013-05-18 11:02:00,
2013-05-18 07:07:00,63.5,62.9,30.12,East,90,0.0,1.6,98,0.00,CLR,,0.00,WeatherDisplay:10.37,2013-05-18 11:07:00,
2013-05-18 07:12:00,63.5,62.9,30.12,East,90,2.6,3.5,98,0.00,CLR,,0.00,WeatherDisplay:10.37,2013-05-18 11:12:00,
2013-05-18 07:17:00,63.5,62.9,30.12,ENE,68,1.6,2.3,98,0.00,CLR,,0.00,WeatherDisplay:10.37,2013-05-18 11:17:00,
2013-05-18 07:22:00,63.7,63.1,30.12,ENE,68,2.2,2.3,98,0.00,CLR,,0.00,WeatherDisplay:10.37,2013-05-18 11:22:00,
2013-05-18 07:27:00,63.9,63.3,30.15,ENE,68,1.2,2.3,98,0.00,CLR,,0.00,WeatherDisplay:10.37,2013-05-18 11:27:00,
2013-05-18 07:32:00,64.0,63.5,30.15,East,90,1.4,2.3,98,0.00,CLR,,0.00,WeatherDisplay:10.37,2013-05-18 11:32:00,
2013-05-18 07:37:00,64.0,63.5,30.15,ESE,112,2.0,5.8,98,0.00,CLR,,0.00,WeatherDisplay:10.37,2013-05-18 11:37:00,
2013-05-18 07:42:00,64.2,63.6,30.12,ESE,112,3.1,3.5,98,0.00,CLR,,0.00,WeatherDisplay:10.37,2013-05-18 11:42:00,
2013-05-18 07:47:00,64.2,63.6,30.12,ESE,112,2.2,2.4,98,0.00,CLR,,0.00,WeatherDisplay:10.37,2013-05-18 11:47:00,
2013-05-18 07:52:00,64.4,63.8,30.12,East,90,1.6,2.3,98,0.00,CLR,,0.00,WeatherDisplay:10.37,2013-05-18 11:52:00,
2013-05-18 07:57:00,64.4,63.5,30.15,East,90,2.0,3.3,97,0.00,CLR,,0.00,WeatherDisplay:10.37,2013-05-18 11:57:00,
2013-05-18 08:02:00,64.6,63.7,30.15,East,90,2.6,3.5,97,0.00,CLR,,0.00,WeatherDisplay:10.37,2013-05-18 12:02:00,
2013-05-18 08:07:00,64.8,63.6,30.15,ESE,112,2.6,3.5,96,0.00,CLR,,0.00,WeatherDisplay:10.37,2013-05-18 12:07:00,
2013-05-18 08:12:00,64.8,63.6,30.15,East,90,3.3,5.8,96,0.00,CLR,,0.00,WeatherDisplay:10.37,2013-05-18 12:12:00,
2013-05-18 08:17:00,64.9,63.8,30.15,ENE,68,1.2,2.6,96,0.00,CLR,,0.00,WeatherDisplay:10.37,2013-05-18 12:17:00,
2013-05-18 08:22:00,64.9,63.8,30.15,ENE,68,2.4,2.9,96,0.00,CLR,,0.00,WeatherDisplay:10.37,2013-05-18 12:22:00,
2013-05-18 08:27:00,64.9,63.5,30.15,NNE,22,1.4,3.5,95,0.00,CLR,,0.00,WeatherDisplay:10.37,2013-05-18 12:27:00,
2013-05-18 08:32:00,65.1,63.7,30.15,East,90,1.2,3.5,95,0.00,CLR,,0.00,WeatherDisplay:10.37,2013-05-18 12:32:00,
2013-05-18 08:37:00,65.1,63.7,30.15,ENE,68,0.0,0.0,95,0.00,CLR,,0.00,WeatherDisplay:10.37,2013-05-18 12:37:00,
2013-05-18 08:42:00,65.3,63.8,30.18,NNW,338,0.0,0.0,95,0.00,CLR,,0.00,WeatherDisplay:10.37,2013-05-18 12:42:00,
2013-05-18 08:47:00,65.3,63.8,30.18,North,0,0.9,1.2,95,0.00,CLR,,0.00,WeatherDisplay:10.37,2013-05-18 12:47:00,
2013-05-18 08:52:00,65.3,63.8,30.18,ENE,68,2.2,3.5,95,0.00,CLR,,0.00,WeatherDisplay:10.37,2013-05-18 12:52:00,
2013-05-18 08:57:00,65.3,63.5,30.18,East,90,2.0,3.6,94,0.00,CLR,,0.00,WeatherDisplay:10.37,2013-05-18 12:57:00,
2013-05-18 09:02:00,65.3,63.5,30.18,East,90,2.6,3.5,94,0.00,CLR,,0.00,WeatherDisplay:10.37,2013-05-18 13:02:00,
2013-05-18 09:07:00,65.3,63.5,30.18,ENE,68,2.4,2.6,94,0.00,CLR,,0.00,WeatherDisplay:10.37,2013-05-18 13:07:00,
2013-05-18 09:12:00,65.5,63.7,30.18,ESE,112,1.4,2.6,94,0.00,CLR,,0.00,WeatherDisplay:10.37,2013-05-18 13:12:00,
2013-05-18 09:17:00,65.5,63.4,30.18,NE,45,2.9,4.9,93,0.00,CLR,,0.00,WeatherDisplay:10.37,2013-05-18 13:17:00,
2013-05-18 09:22:00,65.7,63.6,30.18,NE,45,2.9,4.6,93,0.00,CLR,,0.00,WeatherDisplay:10.37,2013-05-18 13:22:00,
2013-05-18 09:27:00,65.8,63.5,30.18,East,90,3.3,4.6,92,0.00,CLR,,0.00,WeatherDisplay:10.37,2013-05-18 13:27:00,
2013-05-18 09:32:00,66.2,63.8,30.18,North,0,0.0,0.0,92,0.00,CLR,,0.00,WeatherDisplay:10.37,2013-05-18 13:32:00,
2013-05-18 09:37:00,66.2,63.5,30.18,NNE,22,2.0,4.6,91,0.00,CLR,,0.00,WeatherDisplay:10.37,2013-05-18 13:37:00,
2013-05-18 09:42:00,66.7,64.3,30.18,NE,45,1.4,1.6,92,0.00,CLR,,0.00,WeatherDisplay:10.37,2013-05-18 13:42:00,
2013-05-18 09:47:00,66.7,63.7,30.18,East,90,3.3,3.5,90,0.00,CLR,,0.00,WeatherDisplay:10.37,2013-05-18 13:47:00,
2013-05-18 09:52:00,66.9,63.9,30.18,ENE,68,3.1,3.6,90,0.00,CLR,,0.00,WeatherDisplay:10.37,2013-05-18 13:52:00,
2013-05-18 09:57:00,66.9,63.6,30.18,ESE,112,3.3,4.6,89,0.00,CLR,,0.00,WeatherDisplay:10.37,2013-05-18 13:57:00,
2013-05-18 10:02:00,67.3,63.9,30.18,NNE,22,3.1,5.8,89,0.00,CLR,,0.00,WeatherDisplay:10.37,2013-05-18 14:02:00,
2013-05-18 10:07:00,67.6,64.0,30.18,ESE,112,4.0,4.6,88,0.00,CLR,,0.00,WeatherDisplay:10.37,2013-05-18 14:07:00,
2013-05-18 10:12:00,68.2,64.5,30.18,ENE,68,1.2,3.1,88,0.00,CLR,,0.00,WeatherDisplay:10.37,2013-05-18 14:12:00,
2013-05-18 10:17:00,68.4,64.3,30.18,East,90,2.6,4.6,87,0.00,CLR,,0.00,WeatherDisplay:10.37,2013-05-18 14:17:00,
2013-05-18 10:22:00,68.7,64.4,30.18,East,90,2.0,4.0,86,0.00,CLR,,0.00,WeatherDisplay:10.37,2013-05-18 14:22:00,
2013-05-18 10:27:00,68.7,64.4,30.18,ESE,112,2.9,2.9,86,0.00,CLR,,0.00,WeatherDisplay:10.37,2013-05-18 14:27:00,
2013-05-18 10:32:00,69.6,65.2,30.18,NNE,22,1.2,1.2,86,0.00,CLR,,0.00,WeatherDisplay:10.37,2013-05-18 14:32:00,
2013-05-18 10:37:00,70.2,65.4,30.18,North,0,1.2,1.4,85,0.00,CLR,,0.00,WeatherDisplay:10.37,2013-05-18 14:37:00,
2013-05-18 10:43:00,70.5,65.4,30.18,North,0,0.0,0.0,84,0.00,CLR,,0.00,WeatherDisplay:10.37,2013-05-18 14:43:00,
2013-05-18 10:48:00,70.3,65.3,30.18,NE,45,0.0,1.6,84,0.00,CLR,,0.00,WeatherDisplay:10.37,2013-05-18 14:48:00,
2013-05-18 10:53:00,70.0,64.6,30.18,ENE,68,2.9,3.5,83,0.00,CLR,,0.00,WeatherDisplay:10.37,2013-05-18 14:53:00,
2013-05-18 10:58:00,70.0,64.2,30.18,East,90,4.3,5.8,82,0.00,CLR,,0.00,WeatherDisplay:10.37,2013-05-18 14:58:00,
2013-05-18 11:03:00,70.3,64.6,30.18,ENE,68,2.6,3.5,82,0.00,CLR,,0.00,WeatherDisplay:10.37,2013-05-18 15:03:00,
2013-05-18 11:08:00,71.2,65.1,30.18,ENE,68,2.9,4.6,81,0.00,CLR,,0.00,WeatherDisplay:10.37,2013-05-18 15:08:00,
2013-05-18 11:13:00,71.2,64.8,30.18,East,90,2.9,3.5,80,0.00,CLR,,0.00,WeatherDisplay:10.37,2013-05-18 15:13:00,
2013-05-18 11:18:00,71.1,64.6,30.18,ESE,112,3.1,3.5,80,0.00,CLR,,0.00,WeatherDisplay:10.37,2013-05-18 15:18:00,
2013-05-18 11:23:00,72.0,65.5,30.18,NE,45,0.9,1.4,80,0.00,CLR,,0.00,WeatherDisplay:10.37,2013-05-18 15:23:00,
2013-05-18 11:28:00,72.7,65.8,30.18,SE,135,2.2,3.5,79,0.00,CLR,,0.00,WeatherDisplay:10.37,2013-05-18 15:28:00,
2013-05-18 11:33:00,73.0,65.8,30.18,SSE,158,0.0,2.9,78,0.00,CLR,,0.00,WeatherDisplay:10.37,2013-05-18 15:33:00,
2013-05-18 11:38:00,73.0,65.4,30.18,SSE,158,1.6,2.3,77,0.00,CLR,,0.00,WeatherDisplay:10.37,2013-05-18 15:38:00,
2013-05-18 11:43:00,73.4,65.7,30.18,South,180,0.9,2.6,77,0.00,CLR,,0.00,WeatherDisplay:10.37,2013-05-18 15:43:00,
2013-05-18 11:48:00,72.3,64.7,30.18,NE,45,1.6,2.6,77,0.00,CLR,,0.00,WeatherDisplay:10.37,2013-05-18 15:48:00,
2013-05-18 11:53:00,71.6,64.4,30.18,NW,315,0.9,1.2,78,0.00,CLR,,0.00,WeatherDisplay:10.37,2013-05-18 15:53:00,
2013-05-18 11:58:00,71.4,64.6,30.21,East,90,2.2,2.3,79,0.00,CLR,,0.00,WeatherDisplay:10.37,2013-05-18 15:58:00,
2013-05-18 12:03:00,71.4,64.9,30.21,SSE,158,3.3,3.6,80,0.00,CLR,,0.00,WeatherDisplay:10.37,2013-05-18 16:03:00,
2013-05-18 12:08:00,71.4,65.3,30.21,ENE,68,0.9,2.3,81,0.00,CLR,,0.00,WeatherDisplay:10.37,2013-05-18 16:08:00,
2013-05-18 12:13:00,71.2,65.1,30.21,ESE,112,2.0,2.9,81,0.00,CLR,,0.00,WeatherDisplay:10.37,2013-05-18 16:13:00,
2013-05-18 12:18:00,71.1,65.3,30.21,SE,135,0.9,2.3,82,0.00,CLR,,0.00,WeatherDisplay:10.37,2013-05-18 16:18:00,
2013-05-18 12:23:00,71.2,65.8,30.21,NE,45,1.4,2.0,83,0.00,CLR,,0.00,WeatherDisplay:10.37,2013-05-18 16:23:00,
2013-05-18 12:28:00,71.1,65.6,30.21,East,90,2.2,2.3,83,0.00,CLR,,0.00,WeatherDisplay:10.37,2013-05-18 16:28:00,
2013-05-18 12:33:00,70.9,65.5,30.21,East,90,2.0,3.5,83,0.00,CLR,,0.00,WeatherDisplay:10.37,2013-05-18 16:33:00,
2013-05-18 12:38:00,70.7,65.3,30.21,NE,45,1.2,2.3,83,0.00,CLR,,0.00,WeatherDisplay:10.37,2013-05-18 16:38:00,
2013-05-18 12:43:00,70.9,65.5,30.18,ENE,68,0.9,1.2,83,0.00,CLR,,0.00,WeatherDisplay:10.37,2013-05-18 16:43:00,
2013-05-18 12:48:00,71.2,66.2,30.18,NE,45,0.9,0.0,84,0.00,CLR,,0.00,WeatherDisplay:10.37,2013-05-18 16:48:00,
2013-05-18 12:53:00,71.6,66.2,30.18,NNE,22,0.0,1.2,83,0.00,CLR,,0.00,WeatherDisplay:10.37,2013-05-18 16:53:00,
2013-05-18 12:58:00,71.4,66.0,30.18,East,90,3.3,4.6,83,0.00,CLR,,0.00,WeatherDisplay:10.37,2013-05-18 16:58:00,
2013-05-18 13:03:00,71.1,64.9,30.18,ESE,112,2.9,4.6,81,0.00,CLR,,0.00,WeatherDisplay:10.37,2013-05-18 17:03:00,
2013-05-18 13:08:00,71.2,65.8,30.18,East,90,2.4,4.9,83,0.00,CLR,,0.00,WeatherDisplay:10.37,2013-05-18 17:08:00,
2013-05-18 13:13:00,71.2,65.8,30.18,ESE,112,3.1,3.5,83,0.00,CLR,,0.00,WeatherDisplay:10.37,2013-05-18 17:13:00,
2013-05-18 13:18:00,72.0,66.2,30.18,NNW,338,0.0,1.2,82,0.00,CLR,,0.00,WeatherDisplay:10.37,2013-05-18 17:18:00,
2013-05-18 13:23:00,71.8,66.0,30.18,NE,45,2.2,2.3,82,0.00,CLR,,0.00,WeatherDisplay:10.37,2013-05-18 17:23:00,
2013-05-18 13:28:00,72.1,66.3,30.18,NE,45,2.0,2.3,82,0.00,CLR,,0.00,WeatherDisplay:10.37,2013-05-18 17:28:00,
2013-05-18 13:33:00,72.7,66.9,30.18,NNE,22,0.0,2.4,82,0.00,CLR,,0.00,WeatherDisplay:10.37,2013-05-18 17:33:00,
2013-05-18 13:38:00,73.4,67.2,30.18,North,0,2.0,2.3,81,0.00,CLR,,0.00,WeatherDisplay:10.37,2013-05-18 17:38:00,
2013-05-18 13:43:00,74.1,67.2,30.18,North,0,2.2,2.3,79,0.00,CLR,,0.00,WeatherDisplay:10.37,2013-05-18 17:43:00,
2013-05-18 13:48:00,75.0,67.7,30.18,ENE,68,1.6,2.3,78,0.00,CLR,,0.00,WeatherDisplay:10.37,2013-05-18 17:48:00,
2013-05-18 13:53:00,74.8,67.5,30.18,NNE,22,0.0,1.2,78,0.00,CLR,,0.00,WeatherDisplay:10.37,2013-05-18 17:53:00,
2013-05-18 13:58:00,74.8,66.4,30.15,SE,135,2.6,3.5,75,0.00,CLR,,0.00,WeatherDisplay:10.37,2013-05-18 17:58:00,
2013-05-18 14:03:00,75.2,67.1,30.15,ENE,68,2.2,3.5,76,0.00,CLR,,0.00,WeatherDisplay:10.37,2013-05-18 18:03:00,
2013-05-18 14:08:00,75.6,67.5,30.15,NNE,22,1.2,1.2,76,0.00,CLR,,0.00,WeatherDisplay:10.37,2013-05-18 18:08:00,
2013-05-18 14:13:00,76.1,67.6,30.12,North,0,1.4,2.3,75,0.00,CLR,,0.00,WeatherDisplay:10.37,2013-05-18 18:13:00,
2013-05-18 14:18:00,76.5,67.6,30.12,NNE,22,1.4,1.4,74,0.00,CLR,,0.00,WeatherDisplay:10.37,2013-05-18 18:18:00,
2013-05-18 14:23:00,76.5,66.4,30.12,East,90,1.6,2.3,71,0.00,CLR,,0.00,WeatherDisplay:10.37,2013-05-18 18:23:00,
2013-05-18 14:28:00,76.6,66.9,30.15,ENE,68,2.9,3.5,72,0.00,CLR,,0.00,WeatherDisplay:10.37,2013-05-18 18:28:00,
2013-05-18 14:33:00,76.3,67.0,30.15,ENE,68,2.2,3.6,73,0.00,CLR,,0.00,WeatherDisplay:10.37,2013-05-18 18:33:00,
2013-05-18 14:38:00,75.9,66.6,30.15,ESE,112,2.4,3.5,73,0.00,CLR,,0.00,WeatherDisplay:10.37,2013-05-18 18:38:00,
2013-05-18 14:43:00,75.7,66.5,30.12,ESE,112,2.2,3.5,73,0.00,CLR,,0.00,WeatherDisplay:10.37,2013-05-18 18:43:00,
2013-05-18 14:48:00,75.7,65.7,30.12,SSE,158,2.2,3.5,71,0.00,CLR,,0.00,WeatherDisplay:10.37,2013-05-18 18:48:00,
2013-05-18 14:53:00,76.6,65.3,30.15,East,90,4.0,4.6,68,0.00,CLR,,0.00,WeatherDisplay:10.37,2013-05-18 18:53:00,
2013-05-18 14:58:00,77.7,65.9,30.15,East,90,2.6,2.9,67,0.00,CLR,,0.00,WeatherDisplay:10.37,2013-05-18 18:58:00,
2013-05-18 15:03:00,78.1,63.5,30.15,NE,45,3.8,8.1,61,0.00,CLR,,0.00,WeatherDisplay:10.37,2013-05-18 19:03:00,
2013-05-18 15:08:00,76.8,63.3,30.15,East,90,2.6,3.5,63,0.00,CLR,,0.00,WeatherDisplay:10.37,2013-05-18 19:08:00,
2013-05-18 15:13:00,77.2,63.6,30.15,East,90,2.4,3.5,63,0.00,CLR,,0.00,WeatherDisplay:10.37,2013-05-18 19:13:00,
2013-05-18 15:18:00,76.5,62.9,30.15,NE,45,2.6,3.5,63,0.00,CLR,,0.00,WeatherDisplay:10.37,2013-05-18 19:18:00,
2013-05-18 15:23:00,75.6,63.0,30.15,ENE,68,1.6,2.4,65,0.00,CLR,,0.00,WeatherDisplay:10.37,2013-05-18 19:23:00,
2013-05-18 15:28:00,74.8,63.1,30.15,East,90,2.0,2.3,67,0.00,CLR,,0.00,WeatherDisplay:10.37,2013-05-18 19:28:00,
2013-05-18 15:33:00,74.3,63.1,30.15,East,90,1.6,3.3,68,0.00,CLR,,0.00,WeatherDisplay:10.37,2013-05-18 19:33:00,
2013-05-18 15:38:00,74.3,63.5,30.12,NNE,22,2.4,3.8,69,0.00,CLR,,0.00,WeatherDisplay:10.37,2013-05-18 19:38:00,
2013-05-18 15:43:00,74.3,63.5,30.12,East,90,1.4,2.3,69,0.00,CLR,,0.00,WeatherDisplay:10.37,2013-05-18 19:43:00,
2013-05-18 15:48:00,74.1,63.7,30.12,SSE,158,4.3,6.9,70,0.00,CLR,,0.00,WeatherDisplay:10.37,2013-05-18 19:48:00,
2013-05-18 15:53:00,73.6,64.0,30.15,South,180,3.1,4.6,72,0.00,CLR,,0.00,WeatherDisplay:10.37,2013-05-18 19:53:00,
2013-05-18 15:58:00,73.6,64.8,30.15,ENE,68,1.2,3.5,74,0.00,CLR,,0.00,WeatherDisplay:10.37,2013-05-18 19:58:00,
2013-05-18 16:03:00,73.0,64.6,30.15,ENE,68,3.6,4.6,75,0.00,CLR,,0.00,WeatherDisplay:10.37,2013-05-18 20:03:00,
2013-05-18 16:08:00,72.5,64.1,30.15,ESE,112,2.0,2.3,75,0.00,CLR,,0.00,WeatherDisplay:10.37,2013-05-18 20:08:00,
2013-05-18 16:13:00,72.3,64.3,30.15,SE,135,0.0,3.5,76,0.00,CLR,,0.00,WeatherDisplay:10.37,2013-05-18 20:13:00,
2013-05-18 16:18:00,72.1,64.5,30.15,NE,45,2.6,3.5,77,0.00,CLR,,0.00,WeatherDisplay:10.37,2013-05-18 20:18:00,
2013-05-18 16:23:00,72.1,64.9,30.15,East,90,1.2,1.2,78,0.00,CLR,,0.00,WeatherDisplay:10.37,2013-05-18 20:23:00,
2013-05-18 16:28:00,72.1,65.3,30.15,ESE,112,2.0,3.3,79,0.00,CLR,,0.00,WeatherDisplay:10.37,2013-05-18 20:28:00,
2013-05-18 16:33:00,72.3,65.8,30.15,ENE,68,0.0,0.0,80,0.00,CLR,,0.00,WeatherDisplay:10.37,2013-05-18 20:33:00,
2013-05-18 16:38:00,72.3,65.8,30.15,NE,45,1.2,2.3,80,0.00,CLR,,0.00,WeatherDisplay:10.37,2013-05-18 20:38:00,
2013-05-18 16:43:00,72.1,65.6,30.15,ESE,112,2.0,2.4,80,0.00,CLR,,0.00,WeatherDisplay:10.37,2013-05-18 20:43:00,
2013-05-18 16:48:00,72.3,65.8,30.15,NE,45,1.2,2.3,80,0.00,CLR,,0.00,WeatherDisplay:10.37,2013-05-18 20:48:00,
2013-05-18 16:53:00,72.5,66.3,30.15,NNE,22,0.9,2.3,81,0.00,CLR,,0.00,WeatherDisplay:10.37,2013-05-18 20:53:00,
2013-05-18 16:58:00,72.3,65.8,30.15,ENE,68,0.0,1.2,80,0.00,CLR,,0.00,WeatherDisplay:10.37,2013-05-18 20:58:00,
2013-05-18 17:03:00,72.3,65.8,30.15,SSE,158,1.6,2.3,80,0.00,CLR,,0.00,WeatherDisplay:10.37,2013-05-18 21:03:00,
2013-05-18 17:08:00,72.3,65.8,30.15,ESE,112,1.6,2.3,80,0.00,CLR,,0.00,WeatherDisplay:10.37,2013-05-18 21:08:00,
2013-05-18 17:13:00,72.3,65.8,30.15,ESE,112,2.2,2.3,80,0.00,CLR,,0.00,WeatherDisplay:10.37,2013-05-18 21:13:00,
2013-05-18 17:18:00,72.3,66.2,30.15,SE,135,0.0,1.2,81,0.00,CLR,,0.00,WeatherDisplay:10.37,2013-05-18 21:18:00,
2013-05-18 17:23:00,72.5,66.3,30.15,ESE,112,2.2,2.6,81,0.00,CLR,,0.00,WeatherDisplay:10.37,2013-05-18 21:23:00,
2013-05-18 17:28:00,72.5,66.3,30.15,South,180,0.9,2.3,81,0.00,CLR,,0.00,WeatherDisplay:10.37,2013-05-18 21:28:00,
2013-05-18 17:33:00,72.7,66.5,30.15,SSE,158,2.2,2.3,81,0.00,CLR,,0.00,WeatherDisplay:10.37,2013-05-18 21:33:00,
2013-05-18 17:38:00,72.9,66.7,30.15,SSE,158,1.4,1.4,81,0.00,CLR,,0.00,WeatherDisplay:10.37,2013-05-18 21:38:00,
2013-05-18 17:43:00,72.9,67.0,30.15,SSE,158,0.9,2.3,82,0.00,CLR,,0.00,WeatherDisplay:10.37,2013-05-18 21:43:00,
2013-05-18 17:48:00,72.9,67.0,30.15,ENE,68,2.0,2.3,82,0.00,CLR,,0.00,WeatherDisplay:10.37,2013-05-18 21:48:00,
2013-05-18 17:53:00,72.9,67.0,30.15,South,180,2.4,2.4,82,0.00,CLR,,0.00,WeatherDisplay:10.37,2013-05-18 21:53:00,
2013-05-18 17:58:00,72.9,67.0,30.15,ENE,68,1.2,1.4,82,0.00,CLR,,0.00,WeatherDisplay:10.37,2013-05-18 21:58:00,
2013-05-18 18:03:00,72.7,66.9,30.15,ESE,112,1.6,2.3,82,0.00,CLR,,0.00,WeatherDisplay:10.37,2013-05-18 22:03:00,
2013-05-18 18:08:00,72.5,67.0,30.12,ESE,112,0.0,2.3,83,0.00,CLR,,0.00,WeatherDisplay:10.37,2013-05-18 22:08:00,
2013-05-18 18:13:00,72.7,67.2,30.12,SE,135,2.0,3.5,83,0.00,CLR,,0.00,WeatherDisplay:10.37,2013-05-18 22:13:00,
2013-05-18 18:18:00,72.9,67.4,30.12,ENE,68,2.2,2.3,83,0.00,CLR,,0.00,WeatherDisplay:10.37,2013-05-18 22:18:00,
2013-05-18 18:23:00,72.7,67.6,30.15,ENE,68,1.4,2.4,84,0.00,CLR,,0.00,WeatherDisplay:10.37,2013-05-18 22:23:00,
2013-05-18 18:28:00,72.9,67.7,30.15,SSE,158,2.2,3.5,84,0.00,CLR,,0.00,WeatherDisplay:10.37,2013-05-18 22:28:00,
2013-05-18 18:33:00,72.9,67.7,30.15,East,90,2.4,3.5,84,0.00,CLR,,0.00,WeatherDisplay:10.37,2013-05-18 22:33:00,
2013-05-18 18:38:00,72.5,67.4,30.15,NE,45,2.0,2.3,84,0.00,CLR,,0.00,WeatherDisplay:10.37,2013-05-18 22:38:00,
2013-05-18 18:43:00,72.5,67.4,30.15,SE,135,2.6,3.5,84,0.00,CLR,,0.00,WeatherDisplay:10.37,2013-05-18 22:43:00,
2013-05-18 18:48:00,72.3,66.9,30.15,ESE,112,2.0,2.3,83,0.00,CLR,,0.00,WeatherDisplay:10.37,2013-05-18 22:48:00,
2013-05-18 18:53:00,72.0,66.2,30.12,East,90,2.0,4.6,82,0.00,CLR,,0.00,WeatherDisplay:10.37,2013-05-18 22:53:00,
2013-05-18 18:58:00,71.6,65.5,30.12,NE,45,0.0,2.2,81,0.00,CLR,,0.00,WeatherDisplay:10.37,2013-05-18 22:58:00,
2013-05-18 19:03:00,71.4,65.6,30.12,NNE,22,2.2,3.5,82,0.00,CLR,,0.00,WeatherDisplay:10.37,2013-05-18 23:03:00,
2013-05-18 19:08:00,71.1,65.3,30.15,ENE,68,1.2,1.4,82,0.00,CLR,,0.00,WeatherDisplay:10.37,2013-05-18 23:08:00,
2013-05-18 19:13:00,71.1,65.3,30.15,South,180,2.0,2.3,82,0.00,CLR,,0.00,WeatherDisplay:10.37,2013-05-18 23:13:00,
2013-05-18 19:18:00,70.7,65.3,30.15,East,90,1.6,2.3,83,0.00,CLR,,0.00,WeatherDisplay:10.37,2013-05-18 23:18:00,
2013-05-18 19:23:00,70.5,65.4,30.18,South,180,0.0,0.0,84,0.00,CLR,,0.00,WeatherDisplay:10.37,2013-05-18 23:23:00,
2013-05-18 19:28:00,70.5,65.4,30.18,East,90,0.0,1.2,84,0.00,CLR,,0.00,WeatherDisplay:10.37,2013-05-18 23:28:00,
2013-05-18 19:33:00,70.2,65.4,30.18,East,90,0.0,0.0,85,0.00,CLR,,0.00,WeatherDisplay:10.37,2013-05-18 23:33:00,
2013-05-18 19:38:00,70.2,66.1,30.15,East,90,0.0,0.0,87,0.00,CLR,,0.00,WeatherDisplay:10.37,2013-05-18 23:38:00,
2013-05-18 19:43:00,70.0,66.3,30.15,East,90,0.0,0.0,88,0.00,CLR,,0.00,WeatherDisplay:10.37,2013-05-18 23:43:00,
2013-05-18 19:48:00,69.8,65.8,30.15,East,90,0.0,0.0,87,0.00,CLR,,0.00,WeatherDisplay:10.37,2013-05-18 23:48:00,
2013-05-18 19:53:00,69.6,65.9,30.18,East,90,0.0,0.0,88,0.00,CLR,,0.00,WeatherDisplay:10.37,2013-05-18 23:53:00,
2013-05-18 19:58:00,69.6,66.2,30.18,East,90,0.0,1.2,89,0.00,CLR,,0.00,WeatherDisplay:10.37,2013-05-18 23:58:00,
2013-05-18 20:03:00,69.4,66.1,30.18,East,90,0.0,0.0,89,0.00,CLR,,0.00,WeatherDisplay:10.37,2013-05-19 00:03:00,
2013-05-18 20:08:00,69.3,65.9,30.15,SSE,158,0.9,1.4,89,0.00,CLR,,0.00,WeatherDisplay:10.37,2013-05-19 00:08:00,
2013-05-18 20:13:00,69.1,66.0,30.15,ESE,112,1.4,2.3,90,0.00,CLR,,0.00,WeatherDisplay:10.37,2013-05-19 00:13:00,
2013-05-18 20:18:00,69.1,66.0,30.15,East,90,0.0,0.0,90,0.00,CLR,,0.00,WeatherDisplay:10.37,2013-05-19 00:18:00,
2013-05-18 20:23:00,68.9,65.8,30.15,SE,135,0.0,0.0,90,0.00,CLR,,0.00,WeatherDisplay:10.37,2013-05-19 00:23:00,
2013-05-18 20:28:00,68.9,66.2,30.15,SSE,158,1.6,2.3,91,0.00,CLR,,0.00,WeatherDisplay:10.37,2013-05-19 00:28:00,
2013-05-18 20:33:00,68.7,66.3,30.15,SSE,158,0.9,2.3,92,0.00,CLR,,0.00,WeatherDisplay:10.37,2013-05-19 00:33:00,
2013-05-18 20:38:00,68.7,66.3,30.15,South,180,0.9,2.2,92,0.00,CLR,,0.00,WeatherDisplay:10.37,2013-05-19 00:38:00,
2013-05-18 20:43:00,68.7,66.6,30.15,NNE,22,0.0,2.3,93,0.00,CLR,,0.00,WeatherDisplay:10.37,2013-05-19 00:43:00,
2013-05-18 20:48:00,68.7,66.6,30.15,South,180,2.0,4.6,93,0.00,CLR,,0.00,WeatherDisplay:10.37,2013-05-19 00:48:00,
2013-05-18 20:53:00,68.5,66.4,30.12,SSE,158,2.9,3.5,93,0.00,CLR,,0.00,WeatherDisplay:10.37,2013-05-19 00:53:00,
2013-05-18 20:58:00,68.2,66.1,30.12,South,180,2.2,4.6,93,0.00,CLR,,0.00,WeatherDisplay:10.37,2013-05-19 00:58:00,
2013-05-18 21:03:00,68.0,65.9,30.12,SSE,158,0.9,1.2,93,0.00,CLR,,0.00,WeatherDisplay:10.37,2013-05-19 01:03:00,
2013-05-18 21:08:00,67.6,65.9,30.15,SSW,202,3.1,3.6,94,0.00,CLR,,0.00,WeatherDisplay:10.37,2013-05-19 01:08:00,
2013-05-18 21:13:00,67.5,66.0,30.15,South,180,1.4,2.3,95,0.00,CLR,,0.00,WeatherDisplay:10.37,2013-05-19 01:13:00,
2013-05-18 21:18:00,67.3,65.8,30.15,ESE,112,1.2,2.3,95,0.00,CLR,,0.00,WeatherDisplay:10.37,2013-05-19 01:18:00,
2013-05-18 21:23:00,67.1,65.6,30.15,ENE,68,0.0,1.2,95,0.00,CLR,,0.00,WeatherDisplay:10.37,2013-05-19 01:23:00,
2013-05-18 21:28:00,66.9,65.4,30.15,WSW,248,2.0,3.5,95,0.00,CLR,,0.00,WeatherDisplay:10.37,2013-05-19 01:28:00,
2013-05-18 21:33:00,66.7,65.6,30.15,ENE,68,2.4,4.6,96,0.00,CLR,,0.00,WeatherDisplay:10.37,2013-05-19 01:33:00,
2013-05-18 21:38:00,66.7,65.6,30.15,SSE,158,0.0,1.2,96,0.00,CLR,,0.00,WeatherDisplay:10.37,2013-05-19 01:38:00,
2013-05-18 21:44:00,66.6,65.4,30.15,ESE,112,1.2,2.3,96,0.00,CLR,,0.00,WeatherDisplay:10.37,2013-05-19 01:44:00,
2013-05-18 21:49:00,66.6,65.4,30.15,SSE,158,0.0,0.9,96,0.00,CLR,,0.00,WeatherDisplay:10.37,2013-05-19 01:49:00,
2013-05-18 21:54:00,66.4,65.5,30.15,ENE,68,2.2,2.3,97,0.00,CLR,,0.00,WeatherDisplay:10.37,2013-05-19 01:54:00,
2013-05-18 21:59:00,66.4,65.5,30.15,East,90,1.6,2.3,97,0.00,CLR,,0.00,WeatherDisplay:10.37,2013-05-19 01:59:00,
2013-05-18 22:04:00,66.2,65.3,30.15,East,90,2.0,2.6,97,0.00,CLR,,0.00,WeatherDisplay:10.37,2013-05-19 02:04:00,
2013-05-18 22:09:00,66.2,65.3,30.12,East,90,0.0,1.2,97,0.00,CLR,,0.00,WeatherDisplay:10.37,2013-05-19 02:09:00,
2013-05-18 22:14:00,66.0,65.1,30.12,SE,135,0.0,0.0,97,0.00,CLR,,0.00,WeatherDisplay:10.37,2013-05-19 02:14:00,
2013-05-18 22:19:00,66.0,65.1,30.12,SSE,158,1.2,1.2,97,0.00,CLR,,0.00,WeatherDisplay:10.37,2013-05-19 02:19:00,
2013-05-18 22:24:00,66.0,65.1,30.15,South,180,2.6,3.5,97,0.00,CLR,,0.00,WeatherDisplay:10.37,2013-05-19 02:24:00,
2013-05-18 22:29:00,65.8,65.3,30.15,SSE,158,0.0,2.6,98,0.00,CLR,,0.00,WeatherDisplay:10.37,2013-05-19 02:29:00,
2013-05-18 22:34:00,65.8,65.3,30.15,South,180,0.9,2.3,98,0.00,CLR,,0.00,WeatherDisplay:10.37,2013-05-19 02:34:00,
2013-05-18 22:39:00,65.7,65.1,30.15,WNW,292,0.0,1.2,98,0.05,RA,,0.05,WeatherDisplay:10.37,2013-05-19 02:39:00,
2013-05-18 22:44:00,65.5,64.6,30.15,SW,225,0.0,0.0,97,0.05,RA,,0.05,WeatherDisplay:10.37,2013-05-19 02:44:00,
2013-05-18 22:49:00,65.3,64.4,30.15,East,90,0.0,0.0,97,0.09,RA,,0.09,WeatherDisplay:10.37,2013-05-19 02:49:00,
2013-05-18 22:54:00,65.1,64.2,30.15,ENE,68,0.0,0.0,97,0.09,RA,,0.09,WeatherDisplay:10.37,2013-05-19 02:54:00,
2013-05-18 22:59:00,64.8,63.9,30.15,ENE,68,0.0,0.0,97,0.09,CLR,,0.09,WeatherDisplay:10.37,2013-05-19 02:59:00,
2013-05-18 23:04:00,64.8,64.2,30.15,East,90,0.9,1.2,98,0.09,CLR,,0.09,WeatherDisplay:10.37,2013-05-19 03:04:00,
2013-05-18 23:09:00,64.6,64.0,30.15,East,90,0.0,0.0,98,0.09,CLR,,0.09,WeatherDisplay:10.37,2013-05-19 03:09:00,
2013-05-18 23:14:00,64.4,63.8,30.15,East,90,0.0,1.2,98,0.09,CLR,,0.09,WeatherDisplay:10.37,2013-05-19 03:14:00,
2013-05-18 23:19:00,64.4,63.8,30.15,East,90,0.0,0.0,98,0.09,CLR,,0.09,WeatherDisplay:10.37,2013-05-19 03:19:00,
2013-05-18 23:24:00,64.4,63.8,30.12,ENE,68,0.0,0.0,98,0.09,CLR,,0.09,WeatherDisplay:10.37,2013-05-19 03:24:00,
2013-05-18 23:29:00,64.4,63.8,30.12,ENE,68,0.0,0.0,98,0.09,CLR,,0.09,WeatherDisplay:10.37,2013-05-19 03:29:00,
2013-05-18 23:34:00,64.4,63.8,30.12,East,90,0.0,0.0,98,0.09,CLR,,0.09,WeatherDisplay:10.37,2013-05-19 03:34:00,
2013-05-18 23:39:00,64.4,63.8,30.12,East,90,0.0,0.0,98,0.04,CLR,,0.09,WeatherDisplay:10.37,2013-05-19 03:39:00,
2013-05-18 23:44:00,64.2,63.6,30.12,SSE,158,1.2,2.3,98,0.04,CLR,,0.09,WeatherDisplay:10.37,2013-05-19 03:44:00,
2013-05-18 23:49:00,64.4,63.8,30.12,ESE,112,0.0,0.0,98,0.00,CLR,,0.09,WeatherDisplay:10.37,2013-05-19 03:49:00,
2013-05-18 23:54:00,64.4,63.8,30.15,ENE,68,1.2,2.3,98,0.00,CLR,,0.09,WeatherDisplay:10.37,2013-05-19 03:54:00,
2013-05-18 23:59:00,64.4,63.8,30.15,ESE,112,0.9,2.3,98,0.00,CLR,,0.09,WeatherDisplay:10.37,2013-05-19 03:59:00,